Location: Newark
(37.3186°N, 13.6631°E)
Time: 03:34:19
(UTC+00:00)

LightSail 2 - Visible Passes

Search period start: 22 November 2019 00:00
Search period end: 02 December 2019 00:00
Orbit: 698 x 729 km, 24.0° (Epoch: 21 November)

Date Brightness Start Highest point End Pass type
(mag) Time Alt. Az. Time Alt. Az. Time Alt. Az.
29 Nov 7.4 17:59:37 10° S 18:01:31 12° S 18:01:31 12° S visible
30 Nov 7.6 17:03:28 10° S 17:03:59 10° SSE 17:04:29 10° SSE visible
30 Nov 7.7 18:45:29 10° SW 18:46:09 12° SSW 18:46:09 12° SSW visible
01 Dec 7.2 17:47:58 10° SSW 17:50:58 16° S 17:51:48 15° SSE visible
